Regional Weather Roundup
Issued by NWS

Home | Current Version | Previous Version | Graphics & Text | Print | Product List | Glossary On
Versions: 1 2 3 4 5 6 7 8 9 10 11 12 13 14 15 16 17 18 19 20 21 22 23 24 25 26 27 28 29 30 31 32 33 34 35 36 37 38 39 40 41 42 43 44 45 46 47 48 49 50
800
ASUS45 KCYS 291810
RWRWY

WYOMING REGIONAL WEATHER ROUNDUP
NATIONAL WEATHER SERVICE CHEYENNE WY
1200 PM MDT FRI APR 29 2016

NOTE:  "FAIR" INDICATES FEW OR NO CLOUDS BELOW 12,000 FEET
WITH NO SIGNIFICANT WEATHER AND/OR OBSTRUCTIONS TO VISIBILITY.

WYZ001-291900-
YELLOWSTONE NATIONAL PARK

CITY           SKY/WX    TMP DP  RH WIND       PRES   REMARKS
LK YELLOWSTONE   N/A     36  21  54 VRB5      29.91F WCI  32
6HR MIN TEMP:  22; 6HR MAX TEMP:  37;

W YELLOWSTONE  NOT AVBL

$$
WYZ002>013-054>058-071-098>099-291900-
NORTHERN WYOMING

CITY           SKY/WX    TMP DP  RH WIND       PRES   REMARKS
JACKSON        MOSUNNY   43  28  56 CALM      29.89F
CODY           CLOUDY    39  28  65 CALM      29.96S
GREYBULL       CLOUDY    48  25  40 SW7       29.96F
6HR MIN TEMP:  40; 6HR MAX TEMP:  49;

WORLAND        CLOUDY    46  29  51 CALM      29.96F
6HR MIN TEMP:  38; 6HR MAX TEMP:  48;

SHERIDAN       CLOUDY    44  30  57 CALM      30.00F
6HR MIN TEMP:  36; 6HR MAX TEMP:  44;

BUFFALO          N/A    N/A N/A N/A MISG      29.99F
GILLETTE       CLOUDY    44  32  62 VRB3      30.01F
6HR MIN TEMP:  35; 6HR MAX TEMP:  43;

HULETT         CLOUDY    43  34  70 E13       30.04F
NEWCASTLE      MOCLDY    43  34  70 NW6       30.03F

$$
WYZ014>020-022>026-101>103-291900-
CENTRAL WYOMING

CITY           SKY/WX    TMP DP  RH WIND       PRES   REMARKS
BIG PINEY      CLOUDY    38  24  57 S6        29.93S WCI  33
6HR MIN TEMP:  30; 6HR MAX TEMP:  38;

PINEDALE       CLOUDY    36  23  60 MISG      29.93S
DUBOIS         CLOUDY    32  23  69 CALM      29.92F
LANDER         LGT SNOW  36  33  89 W6        29.95F FOG     WCI  31
6HR MIN TEMP:  32; 6HR MAX TEMP:  36; 6HR PCP:  0.02;

RIVERTON       CLOUDY    40  28  62 CALM      29.95F
6HR MIN TEMP:  33; 6HR MAX TEMP:  41;

CASPER         CLOUDY    41  31  67 E15       29.95F
6HR MIN TEMP:  32; 6HR MAX TEMP:  41;

DOUGLAS        CLOUDY    39  32  76 SE8       30.01S WCI  33
6HR MIN TEMP:  34; 6HR MAX TEMP:  39;


$$
WYZ021-027>030-104>119-291900-
SOUTHERN WYOMING

CITY           SKY/WX    TMP DP  RH WIND       PRES   REMARKS
EVANSTON       CLOUDY    35  26  69 VRB3      29.92R
6HR MIN TEMP:  31; 6HR MAX TEMP:  35;

KEMMERER       CLOUDY    34  28  80 E9        29.93R WCI  26
FORT BRIDGER   CLOUDY    34  34 100 E6        29.95S WCI  29
ROCK SPRINGS   CLOUDY    35  28  75 NE12      29.92S WCI  27
6HR MIN TEMP:  29; 6HR MAX TEMP:  35; 6HR PCP: TRACE;

DIXON          LGT RAIN  45  34  67 W9        29.88R
RAWLINS        CLOUDY    37  31  78 NE12G22   29.90R WCI  29
6HR MIN TEMP:  31; 6HR MAX TEMP:  37;

SARATOGA       CLOUDY    37  32  81 NW6       29.88S WCI  33
LARAMIE        LGT SNOW  32  28  85 S14       29.89F FOG     WCI  22
6HR MIN TEMP:  29; 6HR MAX TEMP:  33; 6HR PCP: TRACE;

CHEYENNE       LGT SNOW  34  32  92 E10       29.94F FOG     WCI  26
6HR MIN TEMP:  31; 6HR MAX TEMP:  35; 6HR PCP:  0.02;

TORRINGTON     CLOUDY    42  33  70 SE5       30.00R
6HR MIN TEMP:  34; 6HR MAX TEMP:  42;

PINE BLUFFS    LGT RAIN  34  34 100 E6        29.98S WCI  29

$$




USA.gov is the U.S. government's official web portal to all federal, state and local government web resources and services.